Location: Lewisville
(33.0462°N, 96.9942°W)
Time: 05:10:24
(UTC-05:00)

Tiangong - Pass Details

Date: 05 September 2021
Orbit: 382 x 385 km, 41.5° (Epoch: 27 September)

Event Time Altitude Azimuth Distance (km) Brightness Sun altitude
Rises 21:08:53 0° 298° (WNW) 2,253 6.7 -17.4°
Reaches altitude 10° 21:10:57 10° 298° (WNW) 1,398 5.2 -17.8°
Maximum altitude 21:14:07 88° 20° (NNE) 385 0.9 -18.4°
Enters shadow 21:14:18 78° 108° (ESE) 393 0.9 -18.5°
